TimeEDT,TemperatureF,Dew PointF,Humidity,Sea Level PressureIn,VisibilityMPH,Wind Direction,Wind SpeedMPH,Gust SpeedMPH,PrecipitationIn,Events,Conditions,WindDirDegrees,DateUTC
12:15 AM,73.4,69.8,88,30.30,10.0,Calm,Calm,-,N/A,,Clear,0,2013-07-15 04:15:00
12:35 AM,71.6,69.8,94,30.30,10.0,Calm,Calm,-,N/A,,Clear,0,2013-07-15 04:35:00
12:55 AM,71.6,69.8,94,30.30,10.0,Calm,Calm,-,N/A,,Clear,0,2013-07-15 04:55:00
1:15 AM,71.6,68.0,88,30.30,10.0,Calm,Calm,-,N/A,,Clear,0,2013-07-15 05:15:00
1:35 AM,71.6,68.0,88,30.30,10.0,Calm,Calm,-,N/A,,Clear,0,2013-07-15 05:35:00
1:55 AM,69.8,66.2,88,30.30,10.0,Calm,Calm,-,N/A,,Partly Cloudy,0,2013-07-15 05:55:00
2:15 AM,69.8,66.2,88,30.30,7.0,Calm,Calm,-,N/A,,Mostly Cloudy,0,2013-07-15 06:15:00
2:35 AM,69.8,66.2,88,30.30,1.5,Calm,Calm,-,N/A,,Overcast,0,2013-07-15 06:35:00
2:55 AM,69.8,66.2,88,30.30,10.0,Calm,Calm,-,N/A,,Overcast,0,2013-07-15 06:55:00
3:15 AM,69.8,66.2,88,30.29,8.0,Calm,Calm,-,N/A,,Overcast,0,2013-07-15 07:15:00
3:35 AM,68.0,66.2,94,30.29,1.2,Calm,Calm,-,N/A,,Overcast,0,2013-07-15 07:35:00
3:55 AM,69.8,66.2,88,30.29,0.8,Calm,Calm,-,N/A,,Overcast,0,2013-07-15 07:55:00
4:15 AM,69.8,66.2,88,30.29,4.0,Calm,Calm,-,N/A,,Overcast,0,2013-07-15 08:15:00
4:35 AM,68.0,64.4,88,30.29,1.0,Calm,Calm,-,N/A,,Overcast,0,2013-07-15 08:35:00
4:55 AM,68.0,64.4,88,30.29,0.8,Calm,Calm,-,N/A,,Overcast,0,2013-07-15 08:55:00
5:15 AM,68.0,64.4,88,30.29,1.2,Calm,Calm,-,N/A,,Overcast,0,2013-07-15 09:15:00
5:35 AM,68.0,64.4,88,30.30,1.2,Calm,Calm,-,N/A,,Overcast,0,2013-07-15 09:35:00
5:55 AM,66.2,64.4,94,30.31,4.0,Calm,Calm,-,N/A,,Overcast,0,2013-07-15 09:55:00
6:15 AM,66.2,64.4,94,30.31,0.2,Calm,Calm,-,N/A,,Overcast,0,2013-07-15 10:15:00
6:35 AM,66.2,64.4,94,30.31,1.2,Calm,Calm,-,N/A,,Overcast,0,2013-07-15 10:35:00
6:55 AM,66.2,64.4,94,30.31,0.2,Calm,Calm,-,N/A,,Overcast,0,2013-07-15 10:55:00
7:15 AM,68.0,66.2,94,30.32,0.2,Calm,Calm,-,N/A,,Overcast,0,2013-07-15 11:15:00
7:35 AM,69.8,66.2,88,30.32,0.2,Calm,Calm,-,N/A,,Overcast,0,2013-07-15 11:35:00
7:55 AM,71.6,68.0,88,30.32,0.8,Calm,Calm,-,N/A,,Overcast,0,2013-07-15 11:55:00
8:15 AM,73.4,69.8,88,30.32,5.0,Calm,Calm,-,N/A,,Overcast,0,2013-07-15 12:15:00
8:35 AM,73.4,71.6,94,30.32,8.0,Calm,Calm,-,N/A,,Overcast,0,2013-07-15 12:35:00
8:55 AM,73.4,71.6,94,30.32,10.0,Calm,Calm,-,N/A,,Overcast,0,2013-07-15 12:55:00
9:15 AM,75.2,71.6,89,30.33,10.0,Calm,Calm,-,N/A,,Overcast,0,2013-07-15 13:15:00
9:35 AM,75.2,71.6,89,30.33,10.0,East,3.5,-,N/A,,Overcast,100,2013-07-15 13:35:00
9:55 AM,77.0,73.4,89,30.33,10.0,ESE,8.1,-,N/A,,Overcast,120,2013-07-15 13:55:00
10:15 AM,78.8,71.6,78,30.32,10.0,Calm,Calm,-,N/A,,Overcast,0,2013-07-15 14:15:00
10:35 AM,78.8,71.6,78,30.33,10.0,Calm,Calm,-,N/A,,Overcast,0,2013-07-15 14:35:00
10:55 AM,80.6,71.6,74,30.33,10.0,Calm,Calm,-,N/A,,Overcast,0,2013-07-15 14:55:00
11:15 AM,82.4,71.6,70,30.33,10.0,ENE,4.6,-,N/A,,Overcast,60,2013-07-15 15:15:00
11:35 AM,82.4,71.6,70,30.32,10.0,ESE,4.6,-,N/A,,Overcast,110,2013-07-15 15:35:00
11:55 AM,82.4,71.6,70,30.33,10.0,East,3.5,-,N/A,,Mostly Cloudy,80,2013-07-15 15:55:00
12:15 PM,82.4,69.8,66,30.33,10.0,East,5.8,-,N/A,,Mostly Cloudy,80,2013-07-15 16:15:00
12:35 PM,84.2,69.8,62,30.33,10.0,East,4.6,-,N/A,,Mostly Cloudy,80,2013-07-15 16:35:00
12:55 PM,86.0,69.8,58,30.32,10.0,ESE,6.9,-,N/A,,Mostly Cloudy,110,2013-07-15 16:55:00
1:15 PM,86.0,69.8,58,30.31,10.0,East,5.8,-,N/A,,Overcast,100,2013-07-15 17:15:00
1:35 PM,87.8,69.8,55,30.31,10.0,East,6.9,-,N/A,,Overcast,90,2013-07-15 17:35:00
1:55 PM,87.8,69.8,55,30.30,10.0,ENE,9.2,-,N/A,,Scattered Clouds,60,2013-07-15 17:55:00
2:15 PM,87.8,69.8,55,30.29,10.0,NE,5.8,-,N/A,,Partly Cloudy,50,2013-07-15 18:15:00
2:35 PM,87.8,68.0,52,30.29,10.0,NE,9.2,-,N/A,,Scattered Clouds,50,2013-07-15 18:35:00
2:55 PM,87.8,68.0,52,30.28,10.0,ENE,9.2,-,N/A,,Scattered Clouds,60,2013-07-15 18:55:00
3:15 PM,87.8,68.0,52,30.28,10.0,East,10.4,-,N/A,,Scattered Clouds,80,2013-07-15 19:15:00
3:35 PM,87.8,66.2,49,30.28,10.0,East,8.1,-,N/A,,Partly Cloudy,90,2013-07-15 19:35:00
3:55 PM,89.6,69.8,52,30.27,10.0,East,10.4,17.3,N/A,,Partly Cloudy,80,2013-07-15 19:55:00
4:15 PM,89.6,69.8,52,30.27,10.0,East,9.2,-,N/A,,Partly Cloudy,80,2013-07-15 20:15:00
4:35 PM,87.8,66.2,49,30.27,10.0,Calm,Calm,-,N/A,,Partly Cloudy,0,2013-07-15 20:35:00
4:55 PM,89.6,66.2,46,30.27,10.0,NE,5.8,-,N/A,,Clear,50,2013-07-15 20:55:00
5:15 PM,87.8,66.2,49,30.26,10.0,ESE,5.8,-,N/A,,Clear,110,2013-07-15 21:15:00
5:35 PM,87.8,66.2,49,30.26,10.0,ENE,6.9,-,N/A,,Partly Cloudy,70,2013-07-15 21:35:00
5:55 PM,87.8,68.0,52,30.26,10.0,ENE,6.9,-,N/A,,Partly Cloudy,60,2013-07-15 21:55:00
6:15 PM,87.8,66.2,49,30.26,10.0,ENE,3.5,-,N/A,,Clear,60,2013-07-15 22:15:00
6:35 PM,87.8,66.2,49,30.26,10.0,ENE,10.4,-,N/A,,Clear,70,2013-07-15 22:35:00
6:55 PM,86.0,68.0,55,30.26,10.0,ENE,6.9,-,N/A,,Clear,70,2013-07-15 22:55:00
7:15 PM,86.0,68.0,55,30.26,10.0,East,6.9,-,N/A,,Clear,90,2013-07-15 23:15:00
7:35 PM,84.2,68.0,58,30.26,10.0,East,5.8,-,N/A,,Clear,90,2013-07-15 23:35:00
7:55 PM,84.2,68.0,58,30.26,10.0,Calm,Calm,-,N/A,,Clear,0,2013-07-15 23:55:00
8:15 PM,80.6,68.0,65,30.26,10.0,Calm,Calm,-,N/A,,Clear,0,2013-07-16 00:15:00
8:35 PM,78.8,69.8,74,30.26,10.0,Calm,Calm,-,N/A,,Clear,0,2013-07-16 00:35:00
8:55 PM,77.0,69.8,78,30.27,7.0,Calm,Calm,-,N/A,,Clear,0,2013-07-16 00:55:00
9:15 PM,75.2,69.8,83,30.27,6.0,Calm,Calm,-,N/A,,Clear,0,2013-07-16 01:15:00
9:35 PM,77.0,69.8,78,30.27,10.0,Calm,Calm,-,N/A,,Clear,0,2013-07-16 01:35:00
9:55 PM,75.2,69.8,83,30.28,10.0,Calm,Calm,-,N/A,,Clear,0,2013-07-16 01:55:00
10:15 PM,75.2,69.8,83,30.29,10.0,Calm,Calm,-,N/A,,Clear,0,2013-07-16 02:15:00
10:35 PM,75.2,69.8,83,30.29,10.0,Calm,Calm,-,N/A,,Clear,0,2013-07-16 02:35:00
10:55 PM,73.4,69.8,88,30.29,10.0,Calm,Calm,-,N/A,,Clear,0,2013-07-16 02:55:00
11:15 PM,73.4,69.8,88,30.29,10.0,Calm,Calm,-,N/A,,Clear,0,2013-07-16 03:15:00
11:35 PM,73.4,69.8,88,30.29,10.0,SSW,4.6,-,N/A,,Clear,210,2013-07-16 03:35:00
11:55 PM,73.4,69.8,88,30.29,10.0,Calm,Calm,-,N/A,,Clear,0,2013-07-16 03:55:00